Weather in Simferopol

Russia / Republic of Crimea     44°56′53″N   34°06′01″E
temp.,
°C
wind,
m/s
gust,
m/s
humid.,
%
clouds,
%
prec.,
mm/h
press.,
hPa
HPBL,
m
19 january, tue
tue1900:00−10ene3496100 0.0 1020118
03:00−11ene239588 0.0 102178
06:00−12ne229394 0.0 102129
09:00−12ne118775 0.0 102221
12:00−8nne117751 0.0 1023223
15:00−7nw127848 0.0 1021324
18:00−10wsw11875 0.0 102321
21:00−10ssw228711 0.0 102422
20 january, wed
wed2000:00−9s228770 0.0 102421
03:00−9sse228583 0.0 102421
06:00−9sse238327 0.0 102523
09:00−7sse338113 0.0 102527
12:00−2ssw23740 0.0 1026357
15:00−1s238233 0.0 1025419
18:00−2s229194 0.1 102529
21:00−3sse348678 0.2 102552
21 january, thu
thu2100:00−2sse348766 0.0 102648
03:00−1se339081 0.1 102573
06:00−1sse338350 0.0 102526
09:000se448447 0.0 102658
12:00+3sse479548 0.0 1026176
15:00+5ssw4119429 0.0 1025423
18:00+3ssw410931 0.0 1025218
21:00+2s47892 0.0 1026138
22 january, fri
fri2200:00+2s44880 0.0 102577
03:00+2sse45865 0.0 102577
06:00+2s458245 0.0 102481
09:00+3sse498152 0.0 1024144
12:00+6ssw512827 0.0 1023654
15:00+7ssw5137819 0.0 1022595
18:00+4s488397 0.0 1021174
21:00+5s5127789 0.0 1021230
23 january, sat
sat2300:00+5s51370100 0.0 1020272
03:00+6s61470100 0.0 1020323
06:00+6s6157950 0.0 1019328
09:00+6s6148337 0.0 1020361
12:00+11ssw7136659 0.0 1019958
15:00+11ssw8136348 0.0 10181073
18:00+8s487447 0.0 1018166
21:00+7sse477473 0.0 1018129